Location: La Oliva
(42.2466°N, 2.9955°E)
Time: 10:41:18
(UTC+00:00)

COSMOS 2455 - Pass Details

Date: 22 April 2021
Orbit: 902 x 907 km, 67.1° (Epoch: 11 May)

Event Time Altitude Azimuth Distance (km) Brightness Sun altitude
Rises 19:38:53 0° 172° (S) 3,513 5.6 -11.3°
Reaches altitude 10° 19:41:48 10° 159° (SSE) 2,578 4.8 -11.7°
Maximum altitude 19:46:31 25° 106° (ESE) 1,746 3.8 -12.5°
Drops below altitude 10° 19:51:17 10° 54° (NE) 2,594 5.0 -13.2°
Sets 19:54:12 0° 42° (NE) 3,540 5.8 -13.7°
